Location: ??
(35.4627°N, 139.3695°E)
Time: 06:15:59
(UTC+00:00)

TIMED - Pass Details

Date: 25 November 2020
Orbit: 602 x 605 km, 74.1° (Epoch: 20 January)

Event Time Altitude Azimuth Distance (km) Brightness Sun altitude
Exits shadow 19:49:28 38° 329° (NNW) 928 5.1 -19.9°
Maximum altitude 19:51:03 72° 255° (WSW) 637 4.4 -19.6°
Drops below altitude 10° 19:55:22 10° 171° (S) 1,942 7.4 -18.7°
Sets 19:57:35 0° 169° (S) 2,841 8.3 -18.3°
